This is the latest recevied weather packets stored in our database for station/object W4TJP. If no packets are shown the sender has not sent any weather packets the latest 10 day(s).
| Time | Temp. | Humidity | Pressure | Rain* | Wind** | Luminosity | Snow |
|---|---|---|---|---|---|---|---|
| 1777314963 | 25.56° C | 57% | 1016.8 hPa | 0 mm | - | 424 W/m² | - |
| 1777314658 | 25° C | 61% | 1016.9 hPa | 0 mm | - | 534 W/m² | - |
| 1777314355 | 25° C | 58% | 1016.5 hPa | 0 mm | - | 586 W/m² | - |
| 1777314052 | 25.56° C | 57% | 1016.7 hPa | 0 mm | - | 622 W/m² | - |
| 1777313750 | 25° C | 58% | 1016.6 hPa | 0 mm | - | 609 W/m² | - |
| 1777313447 | 25° C | 58% | 1016.8 hPa | 0 mm | - | 621 W/m² | - |
| 1777313144 | 25° C | 59% | 1016.5 hPa | 0 mm | - | 638 W/m² | - |
| 1777312840 | 25° C | 60% | 1016.5 hPa | 0 mm | - | 591 W/m² | - |
| 1777312537 | 25° C | 60% | 1016.9 hPa | 0 mm | - | 583 W/m² | - |
| 1777312234 | 24.44° C | 61% | 1016.9 hPa | 0 mm | - | 629 W/m² | - |
| 1777311931 | 25° C | 59% | 1016.9 hPa | 0 mm | - | 530 W/m² | - |
| 1777311628 | 24.44° C | 61% | 1016.9 hPa | 0 mm | - | 612 W/m² | - |
| 1777311326 | 23.89° C | 63% | 1016.8 hPa | 0 mm | - | 692 W/m² | - |
| 1777311023 | 23.33° C | 64% | 1017 hPa | 0 mm | - | 517 W/m² | - |
| 1777310721 | 22.78° C | 64% | 1017.3 hPa | 0 mm | - | 306 W/m² | - |
| 1777310418 | 22.78° C | 65% | 1017.4 hPa | 0 mm | - | 219 W/m² | - |
| 1777310115 | 23.89° C | 62% | 1017.6 hPa | 0 mm | - | 225 W/m² | - |
| 1777309813 | 23.33° C | 65% | 1017.5 hPa | 0 mm | - | 299 W/m² | - |
| 1777309510 | 23.89° C | 62% | 1017.7 hPa | 0 mm | - | 210 W/m² | - |
| 1777309207 | 24.44° C | 61% | 1017.4 hPa | 0 mm | - | 183 W/m² | - |
| 1777308905 | 25° C | 62% | 1017.6 hPa | 0 mm | - | 359 W/m² | - |
| 1777308600 | 25° C | 60% | 1017.8 hPa | 0 mm | - | 586 W/m² | - |
| 1777308296 | 25° C | 64% | 1017.8 hPa | 0 mm | - | 749 W/m² | - |
| 1777307991 | 25° C | 60% | 1017.8 hPa | 0 mm | - | 774 W/m² | - |
| 1777307690 | 24.44° C | 61% | 1017.5 hPa | 0 mm | - | 700 W/m² | - |
* Rain latest hour (hover to see other rain measurements)
** Current wind speed in m/s (hover to see current wind gust speed)